STARLINK-6197, 56767

Orbit data source: Space-Track

STARLINK-6197, 56767 is a payload satellite owned by SpaceX/Seattle (US) in LEO that was launched on Wed, 31 May 2023 UTC via an FALCON 9 launch vehicle from the Air Force Western Test Range (AFWTR). Payload-class satellites include a variety of spacecraft equipped with specific instruments for various scientific and technological missions. These include communications satellites like Starlink; space stations such as the ISS; scientific satellites like the Hubble; Earth observation satellites from companies like Planet Labs, Umbra, and HawkEye 360; GPS; miniature CubeSats for education and research; and military/defense satellites.

Loading next visibility...
Identifier
56767, 2023-078A
Orbit
LEO
Country
Flag of USUS
Related business
Manufacturer
SpaceX/Seattle
Mission
Partially operational Commercial Communications
Bus & Motor
STARLINK, Unknown motor
Mass
305 kg wet, ~290 kg dry
Launch date (UTC)
2023-05-31 (3 years ago)
Launch vehicle
FALCON 9
Launch site
Air Force Western Test Range (AFWTR)
Object type
Payload
Rocket body
Debris
Shape & HBR
Box + 1 Pan, 10.1 m
Radar Cross Section
11.087 m², Large (>1 m²)

Expand to show TLE details & history
Last TLE update: 3 days ago

TLE from 3 days ago
0 STARLINK-6197
1 56767U 23078A   26170.90639679  .00023164  00000-0  10529-2 0  9991
2 56767  69.9886  83.5562 0003882 326.3957  33.6967 15.20701081168075
Epoch: 2026-06-19T21:45Z
TLE epoch observation values (Epoch: 2026-06-19T21:45:12.682Z)
Latitude
-0.00001°
Longitude
-150.8753°
Altitude
503.949 km
Speed
7.614 km/s
True Right ascension
05h 34m 13s
True Declination
0° 00' 00"
Sunlit
Object was in daylight at epoch
Visualization orbit readout
Latitude
Unknown
Longitude
Unknown
Altitude
Unknown
Speed
Unknown
Apparent Right ascension
Unknown
Apparent Declination
Unknown
Sunlit
N/A
Visualization observer readout
Local Sidereal Time
21:46:17
Azimuth
Unknown
Elevation
Unknown
Doppler factor
Unknown
Orbital elements
Apogee altitude
504.324 km
Perigee altitude
498.983 km
Semi-major axis
6,879.791 km
Eccentricity
0.00039
Inclination
69.9886°
RAAN
83.5562°
Arg. of periapsis
326.3957°
True anomaly
33.72139°
Mean anomaly
33.6967°
Eccentric anomaly
33.70904°
Mean motion
3.80347 °/min
Orbital period
94.65 mins
BSTAR
0.0010529
Loading maneuver chart data...
Computing Atmospheric mass density...

Documentation

Showing up to 5 results
|